Simultaneous Nadir Overpasses (SNOs) Predictions

Prediction of SNOs between AQUA and METOP-C Satellite Orbit:

Table of predicted SNOs for the next 14.0 days since TLE Epoch: 9/13/2019
Index Date (AQUA) Time (AQUA) Lat,Lon (AQUA) SZA (AQUA ) Date (METOP-C) Time (METOP-C) Lat,Lon (METOP-C) SZA (METOP-C ) Distance(km) Time Diff (sec)
1 09/16/2019 02:44:18 73.74, 133.32 70.91 09/16/2019 02:43:37 73.75, 133.27 70.93 1.99 41
2 09/16/2019 03:33:45 -73.84, -59.25 108.98 09/16/2019 03:34:18 -73.82, -59.24 109.00 1.87 33
3 09/18/2019 22:18:35 73.77,-160.32 72.02 09/18/2019 22:17:59 73.75,-160.32 72.01 2.10 36
4 09/18/2019 23:08:01 -73.81, 7.24 107.93 09/18/2019 23:08:40 -73.83, 7.19 107.91 2.80 39
5 09/21/2019 17:52:51 73.76, -93.85 73.10 09/21/2019 17:52:21 73.76, -93.90 73.10 1.40 30
6 09/21/2019 18:42:18 -73.84, 73.61 106.81 09/21/2019 18:43:02 -73.84, 73.62 106.81 0.33 44
7 09/24/2019 13:27:06 73.75, -27.40 74.18 09/24/2019 13:26:42 73.76, -27.48 74.20 2.97 24
8 09/24/2019 14:16:33 -73.82, 140.08 105.74 09/24/2019 14:17:23 -73.85, 140.05 105.71 3.17 50
9 09/27/2019 08:11:45 -73.24,-127.53 105.27 09/27/2019 08:10:37 -73.18,-129.73 105.28 70.88 68
10 09/27/2019 09:01:23 73.79, 38.93 75.32 09/27/2019 09:01:04 73.77, 38.94 75.29 3.12 19
11 09/27/2019 09:50:50 -73.86,-153.57 104.60 09/27/2019 09:51:45 -73.86,-153.52 104.61 1.63 55




NCC Satellite Simultaneous Nadir Overpasses (SNOs) Prediction Service
